KLM1848 NZWN-YMLT

Flight info

Callsign KLM1848
Flight time N/A
Altitude 32000
Route UPLUD1P SABDA V306 ONOLA DCT KABIN M643 FONLO/N0440F340 M643 TASUM H111 LATUM DCT
Aircraft B738/M-L/S

Departure

Time 2026-05-05 08:01
Airport Wellington International Airport (NZWN)

Arrival

Time N/A
Airport Launceston Airport (YMLT)
Time Latitude Longitude Altitude Speed Heading
2026-05-05 08:00 -41.33454 174.80640 22 ft 0 kts
2026-05-05 08:00 -41.33431 174.80641 22 ft 8 kts
2026-05-05 08:01 -41.33149 174.80662 23 ft 87 kts
2026-05-05 08:01 -41.32276 174.80711 224 ft 153 kts
2026-05-05 08:01 -41.31194 174.80681 1111 ft 177 kts 359°
2026-05-05 08:01 -41.29854 174.80638 1871 ft 211 kts
2026-05-05 08:02 -41.28289 174.80418 2544 ft 247 kts 345°
2026-05-05 08:02 -41.26637 174.79658 3758 ft 255 kts 346°
2026-05-05 08:02 -41.24939 174.79138 4913 ft 258 kts 351°
2026-05-05 08:02 -41.23196 174.78708 6017 ft 263 kts 352°
2026-05-05 08:03 -41.21381 174.78279 7106 ft 269 kts 352°
2026-05-05 08:03 -41.19561 174.77797 8137 ft 276 kts 345°
2026-05-05 08:03 -41.17917 174.76498 9133 ft 286 kts 315°
2026-05-05 08:03 -41.16965 174.74208 10129 ft 295 kts 283°
2026-05-05 08:04 -41.16994 174.71503 10937 ft 307 kts 255°
2026-05-05 08:04 -41.18049 174.68929 11429 ft 326 kts 224°
2026-05-05 08:04 -41.19942 174.67368 12319 ft 328 kts 195°
2026-05-05 08:04 -41.22174 174.67127 13096 ft 331 kts 167°
2026-05-05 08:05 -41.24260 174.68294 14008 ft 329 kts 142°
2026-05-05 08:05 -41.26073 174.70151 14871 ft 333 kts 143°
2026-05-05 08:05 -41.28219 174.71402 15635 ft 346 kts 167°
2026-05-05 08:05 -41.30610 174.71498 16500 ft 353 kts 180°
2026-05-05 08:06 -41.33072 174.71416 17209 ft 358 kts 175°
2026-05-05 08:06 -41.35559 174.71333 17934 ft 366 kts 182°
2026-05-05 08:06 -41.38101 174.70865 18652 ft 372 kts 186°
2026-05-05 08:06 -41.40655 174.70337 19330 ft 378 kts 185°
2026-05-05 08:07 -41.43276 174.69794 20001 ft 383 kts 186°
2026-05-05 08:07 -41.45898 174.69202 20644 ft 389 kts 187°
2026-05-05 08:07 -41.48537 174.68440 21261 ft 396 kts 193°
2026-05-05 08:07 -41.51150 174.67142 21866 ft 404 kts 203°
2026-05-05 08:08 -41.53632 174.65434 22466 ft 409 kts 206°
2026-05-05 08:08 -41.56150 174.63669 23027 ft 413 kts 205°
2026-05-05 08:08 -41.58723 174.61909 23576 ft 418 kts 205°
2026-05-05 08:08 -41.61319 174.60129 24114 ft 423 kts 206°
2026-05-05 08:09 -41.63943 174.58313 24631 ft 427 kts 206°
2026-05-05 08:09 -41.66558 174.56496 25131 ft 432 kts 206°
2026-05-05 08:09 -41.69228 174.54636 25617 ft 436 kts 206°
2026-05-05 08:09 -41.71892 174.52777 26254 ft 435 kts 206°
2026-05-05 08:10 -41.74562 174.50911 26889 ft 435 kts 206°
2026-05-05 08:10 -41.87253 174.41997 29364 ft 435 kts 207°
2026-05-05 08:10 -42.12073 174.23689 32809 ft 439 kts 217°
2026-05-05 08:10 -42.14336 174.20921 32431 ft 433 kts 239°
2026-05-05 08:11 -42.15616 174.17444 32427 ft 404 kts 263°
2026-05-05 08:11 -42.15828 174.13815 32435 ft 385 kts 283°
2026-05-05 08:11 -42.15329 174.06581 32423 ft 395 kts 276°
2026-05-05 08:12 -42.16004 173.99161 32425 ft 404 kts 266°
2026-05-05 08:12 -42.17186 173.91786 32425 ft 406 kts 263°
2026-05-05 08:13 -42.18558 173.84381 32425 ft 407 kts 262°
2026-05-05 08:13 -42.20004 173.77023 32425 ft 407 kts 261°
2026-05-05 08:14 -42.21488 173.69663 32425 ft 407 kts 261°
2026-05-05 08:14 -42.22982 173.62332 32425 ft 408 kts 261°
2026-05-05 08:15 -42.24492 173.54954 32423 ft 408 kts 261°
2026-05-05 08:15 -42.25995 173.47612 32400 ft 408 kts 261°
2026-05-05 08:16 -42.27496 173.40269 32365 ft 407 kts 261°
2026-05-05 08:16 -42.28997 173.32909 32336 ft 406 kts 261°
2026-05-05 08:17 -42.30484 173.25591 32317 ft 406 kts 261°
2026-05-05 08:17 -42.31975 173.18228 32317 ft 406 kts 261°
2026-05-05 08:18 -42.33455 173.10893 32317 ft 406 kts 261°
2026-05-05 08:18 -42.34935 173.03538 32317 ft 406 kts 261°
2026-05-05 08:19 -42.36406 172.96197 32317 ft 403 kts 259°
2026-05-05 08:19 -42.37851 172.88966 32317 ft 397 kts 258°
2026-05-05 08:20 -42.39273 172.81819 32317 ft 391 kts 257°
2026-05-05 08:20 -42.40674 172.74751 32317 ft 388 kts 256°
2026-05-05 08:21 -42.42062 172.67722 32317 ft 390 kts 256°
2026-05-05 08:21 -42.43460 172.60623 32317 ft 390 kts 256°
2026-05-05 08:22 -42.44847 172.53552 32317 ft 389 kts 256°
2026-05-05 08:22 -42.46225 172.46501 32317 ft 389 kts 256°
2026-05-05 08:23 -42.47606 172.39414 32317 ft 389 kts 256°
2026-05-05 08:23 -42.48975 172.32362 32317 ft 389 kts 257°
2026-05-05 08:24 -42.50348 172.25259 32317 ft 389 kts 257°
2026-05-05 08:24 -42.51712 172.18179 32317 ft 389 kts 257°
2026-05-05 08:25 -42.53072 172.11096 32317 ft 389 kts 257°
2026-05-05 08:25 -42.54421 172.04045 32317 ft 389 kts 257°
2026-05-05 08:26 -42.55777 171.96930 32317 ft 389 kts 257°
2026-05-05 08:26 -42.57123 171.89842 32317 ft 389 kts 257°
2026-05-05 08:27 -42.58464 171.82750 32317 ft 389 kts 257°
2026-05-05 08:27 -42.59797 171.75679 32317 ft 389 kts 257°
2026-05-05 08:28 -42.61131 171.68578 32317 ft 389 kts 257°
2026-05-05 08:28 -42.62463 171.61459 32317 ft 388 kts 257°
2026-05-05 08:29 -42.63784 171.54369 32317 ft 388 kts 257°
2026-05-05 08:30 -42.65756 171.43744 32317 ft 389 kts 257°
2026-05-05 08:30 -42.67067 171.36639 32317 ft 389 kts 257°
2026-05-05 08:31 -42.68376 171.29529 32317 ft 388 kts 258°
2026-05-05 08:31 -42.69679 171.22417 32317 ft 388 kts 258°
2026-05-05 08:32 -42.70975 171.15320 32317 ft 388 kts 258°
2026-05-05 08:32 -42.72270 171.08200 32317 ft 386 kts 258°
2026-05-05 08:33 -42.73531 171.01247 32317 ft 375 kts 258°
2026-05-05 08:33 -42.74758 170.94450 32317 ft 366 kts 257°
2026-05-05 08:34 -42.75966 170.87729 32317 ft 366 kts 255°
2026-05-05 08:34 -42.77172 170.81003 32317 ft 368 kts 255°
2026-05-05 08:35 -42.78376 170.74257 32317 ft 368 kts 255°
2026-05-05 08:35 -42.79577 170.67509 32317 ft 368 kts 255°
2026-05-05 08:36 -42.80776 170.60744 32317 ft 368 kts 255°
2026-05-05 08:36 -42.81974 170.53955 32317 ft 368 kts 255°
2026-05-05 08:37 -42.83164 170.47192 32317 ft 368 kts 255°
2026-05-05 08:37 -42.84349 170.40431 32317 ft 367 kts 255°
2026-05-05 08:38 -42.85530 170.33670 32317 ft 368 kts 256°
2026-05-05 08:38 -42.86702 170.26938 32317 ft 367 kts 256°
2026-05-05 08:39 -42.87873 170.20177 32317 ft 367 kts 256°
2026-05-05 08:39 -42.89047 170.13384 32317 ft 367 kts 256°
2026-05-05 08:40 -42.90210 170.06621 32317 ft 367 kts 257°
2026-05-05 08:40 -42.91371 169.99847 32317 ft 368 kts 257°
2026-05-05 08:41 -42.92531 169.93048 32317 ft 369 kts 257°
2026-05-05 08:41 -42.93690 169.86237 32317 ft 370 kts 257°
2026-05-05 08:42 -42.94849 169.79391 32317 ft 372 kts 257°
2026-05-05 08:42 -42.96002 169.72559 32317 ft 373 kts 258°
2026-05-05 08:43 -42.97163 169.65649 32317 ft 374 kts 258°
2026-05-05 08:43 -42.98323 169.58717 32317 ft 376 kts 258°
2026-05-05 08:44 -42.99481 169.51773 32317 ft 377 kts 258°
2026-05-05 08:44 -43.00639 169.44798 32317 ft 378 kts 258°
2026-05-05 08:45 -43.01797 169.37797 32317 ft 379 kts 258°
2026-05-05 08:45 -43.02960 169.30742 32317 ft 380 kts 258°
2026-05-05 08:46 -43.03925 169.24864 32317 ft 381 kts 258°
2026-05-05 08:47 -43.06406 169.09653 32317 ft 373 kts 258°
2026-05-05 08:47 -43.07510 169.02838 32317 ft 368 kts 257°
2026-05-05 08:48 -43.08619 168.95969 32317 ft 372 kts 256°
2026-05-05 08:48 -43.09732 168.89041 32317 ft 375 kts 256°
2026-05-05 08:49 -43.10845 168.82091 32317 ft 374 kts 256°
2026-05-05 08:49 -43.11949 168.75165 32317 ft 374 kts 256°
2026-05-05 08:50 -43.13056 168.68193 32317 ft 374 kts 256°
2026-05-05 08:50 -43.14151 168.61269 32317 ft 373 kts 256°
2026-05-05 08:51 -43.15200 168.54349 32316 ft 374 kts 259°
2026-05-05 08:51 -43.15730 168.47282 32317 ft 375 kts 262°
2026-05-05 08:52 -43.16277 168.40193 32317 ft 374 kts 262°
2026-05-05 08:52 -43.16820 168.33087 32317 ft 374 kts 262°
2026-05-05 08:53 -43.17357 168.26024 32317 ft 374 kts 262°
2026-05-05 08:53 -43.17891 168.18936 32317 ft 375 kts 262°
2026-05-05 08:54 -43.18421 168.11867 32317 ft 374 kts 262°
2026-05-05 08:54 -43.18948 168.04767 32317 ft 374 kts 262°
2026-05-05 08:55 -43.19466 167.97728 32317 ft 374 kts 262°
2026-05-05 08:55 -43.19986 167.90608 32317 ft 374 kts 262°
2026-05-05 08:56 -43.20499 167.83524 32317 ft 374 kts 262°
2026-05-05 08:56 -43.21006 167.76460 32317 ft 374 kts 262°
2026-05-05 08:57 -43.21511 167.69365 32317 ft 374 kts 262°
2026-05-05 08:57 -43.22010 167.62291 32317 ft 374 kts 262°
2026-05-05 08:58 -43.22504 167.55219 32317 ft 374 kts 262°
2026-05-05 08:58 -43.22995 167.48129 32317 ft 374 kts 262°
2026-05-05 08:59 -43.23482 167.41036 32317 ft 374 kts 262°
2026-05-05 08:59 -43.23962 167.33980 32317 ft 374 kts 263°
2026-05-05 09:00 -43.24439 167.26889 32317 ft 374 kts 263°
2026-05-05 09:00 -43.24913 167.19791 32317 ft 374 kts 263°
2026-05-05 09:01 -43.25382 167.12691 32317 ft 374 kts 263°
2026-05-05 09:01 -43.25846 167.05605 32317 ft 374 kts 263°
2026-05-05 09:02 -43.26305 166.98532 32317 ft 371 kts 263°
2026-05-05 09:02 -43.26751 166.91574 32317 ft 363 kts 263°
2026-05-05 09:03 -43.27182 166.84752 32317 ft 356 kts 264°
2026-05-05 09:03 -43.27602 166.78041 32317 ft 352 kts 265°
2026-05-05 09:04 -43.28015 166.71372 32317 ft 353 kts 265°
2026-05-05 09:04 -43.28428 166.64644 32317 ft 354 kts 265°
2026-05-05 09:05 -43.28836 166.57936 32317 ft 353 kts 265°
2026-05-05 09:05 -43.29241 166.51205 32317 ft 353 kts 265°
2026-05-05 09:06 -43.29641 166.44488 32317 ft 353 kts 265°
2026-05-05 09:06 -43.30036 166.37793 32317 ft 354 kts 265°
2026-05-05 09:07 -43.34456 165.58102 32368 ft 353 kts 265°
2026-05-05 09:07 -43.37078 165.04639 32233 ft 354 kts 267°
2026-05-05 09:07 -43.39477 164.50169 32399 ft 360 kts 269°
2026-05-05 09:08 -43.43738 163.39444 32115 ft 362 kts 270°
2026-05-05 09:08 -43.45124 162.84560 32349 ft 362 kts 275°
2026-05-05 09:08 -43.46776 162.28413 32648 ft 372 kts 274°
2026-05-05 09:09 -43.48156 161.13417 32487 ft 376 kts 275°
2026-05-05 09:09 -43.50384 160.56038 32195 ft 374 kts 275°
2026-05-05 09:09 -43.48388 160.00253 32034 ft 366 kts 281°
2026-05-05 09:09 -43.49314 159.43730 31921 ft 375 kts 267°
2026-05-05 09:10 -43.49880 159.39308 32287 ft 366 kts 269°
2026-05-05 09:10 -43.49808 159.32312 32314 ft 367 kts 281°
2026-05-05 09:11 -43.49684 159.25276 32317 ft 368 kts 277°
2026-05-05 09:11 -43.49642 159.18282 32317 ft 365 kts 277°
2026-05-05 09:12 -43.49554 159.11299 32317 ft 367 kts 277°
2026-05-05 09:12 -43.48857 158.23708 32264 ft 352 kts 274°
2026-05-05 09:12 -43.48082 157.70023 31964 ft 351 kts 275°
2026-05-05 09:13 -43.46600 157.16179 31799 ft 354 kts 274°
2026-05-05 09:13 -43.46269 156.63029 31974 ft 344 kts 272°
2026-05-05 09:13 -43.43231 156.11139 32312 ft 338 kts 275°
2026-05-05 09:14 -43.44067 155.13905 32219 ft 344 kts 279°
2026-05-05 09:14 -43.43285 155.10782 32027 ft 346 kts 296°
2026-05-05 09:14 -43.42235 155.07840 32017 ft 342 kts 290°
2026-05-05 09:15 -43.41042 155.01590 32021 ft 341 kts 280°
2026-05-05 09:15 -43.40339 154.95152 32021 ft 340 kts 277°
2026-05-05 09:16 -43.39835 154.88722 32019 ft 335 kts 275°
2026-05-05 09:16 -43.39482 154.82390 32019 ft 333 kts 273°
2026-05-05 09:17 -43.37667 154.45416 32005 ft 332 kts 273°
2026-05-05 09:17 -43.32723 153.44568 31981 ft 333 kts 275°
2026-05-05 09:17 -43.29553 152.93956 32087 ft 331 kts 273°
2026-05-05 09:18 -43.27404 152.44604 31933 ft 320 kts 277°
2026-05-05 09:18 -43.22195 151.96663 32086 ft 317 kts 274°
2026-05-05 09:18 -43.23296 151.48213 31941 ft 320 kts 266°
2026-05-05 09:18 -43.21359 150.99727 32123 ft 320 kts 284°
2026-05-05 09:19 -43.06613 150.55618 31911 ft 317 kts 296°
2026-05-05 09:19 -43.01900 150.44005 32021 ft 311 kts 284°
2026-05-05 09:19 -43.01745 150.41115 32021 ft 309 kts 262°
2026-05-05 09:19 -43.02530 150.38354 32029 ft 320 kts 245°
2026-05-05 09:20 -43.03686 150.35693 32019 ft 325 kts 245°
2026-05-05 09:20 -43.05846 150.30337 32020 ft 322 kts 247°
2026-05-05 09:21 -43.07901 150.24940 32019 ft 319 kts 252°
2026-05-05 09:21 -43.09056 150.19128 32021 ft 316 kts 264°
2026-05-05 09:22 -43.09314 150.13188 32019 ft 313 kts 273°
2026-05-05 09:22 -43.09024 150.07269 32020 ft 312 kts 276°
2026-05-05 09:23 -43.07394 149.85156 32011 ft 314 kts 276°
2026-05-05 09:23 -42.98699 148.91011 31998 ft 309 kts 274°
2026-05-05 09:23 -42.94505 148.45445 32031 ft 295 kts 280°
2026-05-05 09:24 -42.91221 148.24852 32023 ft 288 kts 273°
2026-05-05 09:24 -42.91319 148.22136 32024 ft 291 kts 266°
2026-05-05 09:24 -42.91383 148.19371 32021 ft 293 kts 272°
2026-05-05 09:24 -42.91208 148.16597 32020 ft 294 kts 275°
2026-05-05 09:25 -42.90978 148.13832 31973 ft 289 kts 276°
2026-05-05 09:25 -42.90752 148.11192 31714 ft 281 kts 276°
2026-05-05 09:25 -42.90509 148.08489 31340 ft 289 kts 276°
2026-05-05 09:25 -42.90266 148.05794 30925 ft 288 kts 276°
2026-05-05 09:26 -42.90017 148.03079 30511 ft 289 kts 276°
2026-05-05 09:26 -42.89750 148.00331 30085 ft 293 kts 276°
2026-05-05 09:26 -42.89457 147.97615 29646 ft 292 kts 277°
2026-05-05 09:26 -42.89157 147.94850 29215 ft 297 kts 277°
2026-05-05 09:27 -42.88885 147.92084 28765 ft 294 kts 276°
2026-05-05 09:27 -42.88615 147.89299 28309 ft 302 kts 276°
2026-05-05 09:27 -42.88332 147.86475 27827 ft 299 kts 276°
2026-05-05 09:27 -42.88032 147.83688 27435 ft 302 kts 277°
2026-05-05 09:28 -42.87707 147.80839 27061 ft 307 kts 277°
2026-05-05 09:28 -42.87389 147.77989 26682 ft 298 kts 277°
2026-05-05 09:28 -42.87089 147.75236 26359 ft 298 kts 277°
2026-05-05 09:28 -42.86784 147.72392 25980 ft 302 kts 277°
2026-05-05 09:29 -42.86493 147.69653 25655 ft 292 kts 277°
2026-05-05 09:29 -42.86203 147.66905 25301 ft 299 kts 277°
2026-05-05 09:29 -42.85894 147.64079 24924 ft 296 kts 277°
2026-05-05 09:29 -42.85584 147.61372 24571 ft 289 kts 278°
2026-05-05 09:30 -42.85039 147.58693 24200 ft 301 kts 290°
2026-05-05 09:30 -42.83902 147.56282 23833 ft 300 kts 303°
2026-05-05 09:30 -42.82538 147.54176 23448 ft 303 kts 308°
2026-05-05 09:30 -42.80817 147.52380 23036 ft 319 kts 325°
2026-05-05 09:31 -42.78727 147.51408 22637 ft 322 kts 337°
2026-05-05 09:31 -42.76542 147.50794 22226 ft 325 kts 340°
2026-05-05 09:31 -42.74329 147.50229 21810 ft 326 kts 340°
2026-05-05 09:31 -42.72111 147.49655 21394 ft 319 kts 340°
2026-05-05 09:32 -42.69947 147.49097 20992 ft 317 kts 340°
2026-05-05 09:32 -42.67791 147.48541 20589 ft 322 kts 341°
2026-05-05 09:32 -42.65589 147.48000 20174 ft 315 kts 341°
2026-05-05 09:32 -42.63463 147.47481 19778 ft 312 kts 341°
2026-05-05 09:33 -42.61314 147.46947 19376 ft 317 kts 342°
2026-05-05 09:33 -42.59182 147.46426 18972 ft 310 kts 342°
2026-05-05 09:33 -42.57091 147.45918 18583 ft 310 kts 342°
2026-05-05 09:33 -42.54954 147.45392 18180 ft 310 kts 342°
2026-05-05 09:34 -42.52863 147.44887 17786 ft 304 kts 342°
2026-05-05 09:34 -42.50789 147.44382 17381 ft 307 kts 342°
2026-05-05 09:34 -42.48694 147.43869 16976 ft 304 kts 342°
2026-05-05 09:34 -42.46634 147.43375 16587 ft 298 kts 343°
2026-05-05 09:35 -42.44587 147.42874 16205 ft 305 kts 343°
2026-05-05 09:35 -42.40512 147.41890 15433 ft 295 kts 343°
2026-05-05 09:35 -42.38482 147.41394 15051 ft 299 kts 343°
2026-05-05 09:36 -42.36461 147.40907 14666 ft 293 kts 343°
2026-05-05 09:36 -42.34468 147.40427 14292 ft 293 kts 343°
2026-05-05 09:36 -42.32463 147.39940 13910 ft 294 kts 344°
2026-05-05 09:36 -42.30461 147.39459 13528 ft 287 kts 344°
2026-05-05 09:37 -42.28521 147.38991 13165 ft 291 kts 344°
2026-05-05 09:37 -42.26524 147.38509 12781 ft 288 kts 344°
2026-05-05 09:37 -42.24580 147.38043 12412 ft 282 kts 344°
2026-05-05 09:37 -42.22632 147.37570 12048 ft 288 kts 345°
2026-05-05 09:38 -42.20687 147.37103 11675 ft 282 kts 345°
2026-05-05 09:38 -42.18776 147.36670 11320 ft 278 kts 347°
2026-05-05 09:38 -42.16833 147.36412 10965 ft 284 kts 351°
2026-05-05 09:38 -42.14880 147.36229 10600 ft 277 kts 351°
2026-05-05 09:39 -42.12980 147.36018 10235 ft 276 kts 350°
2026-05-05 09:39 -42.11073 147.35802 9927 ft 272 kts 350°
2026-05-05 09:39 -42.09224 147.35596 9621 ft 265 kts 350°
2026-05-05 09:39 -42.07394 147.35387 9281 ft 260 kts 350°
2026-05-05 09:40 -42.05577 147.35179 8953 ft 265 kts 350°
2026-05-05 09:40 -42.03772 147.34975 8620 ft 260 kts 351°
2026-05-05 09:40 -42.01981 147.34772 8292 ft 256 kts 351°
2026-05-05 09:40 -42.00183 147.34564 7966 ft 261 kts 351°
2026-05-05 09:41 -41.98410 147.34364 7638 ft 256 kts 351°
2026-05-05 09:41 -41.96661 147.34166 7316 ft 251 kts 351°
2026-05-05 09:41 -41.94879 147.33962 6991 ft 256 kts 352°
2026-05-05 09:41 -41.93143 147.33766 6669 ft 251 kts 352°
2026-05-05 09:42 -41.91413 147.33571 6352 ft 248 kts 352°
2026-05-05 09:42 -41.89679 147.33372 6034 ft 251 kts 352°
2026-05-05 09:42 -41.87956 147.33177 5714 ft 247 kts 352°